This demonstration page uses our WeatherBlox Daily Observations layout. Learn more.

39.08367, -84.50855

Hourly Observations for January 30, 2019

Temp ( °F °C ) Dew Point ( °F °C ) Humidity (%) Winds ( mph kmh ) Pressure ( in mb ) Visibility ( mi km ) Precip ( " mm )
12:20 am 00:20 Cloudy with Light Snow 15 -9.4 9 -12.8 77 77 WNW 9 15 30.06 1018 2.5 4.02336 0.001 0.001
12:27 am 00:27 Cloudy with Light Snow 15 -9.4 10 -12.2 80 80 NW 12 19 30.09 1019 3 4.828032 0.001 0.001
12:35 am 00:35 Cloudy with Light Snow 15 -9.4 9 -12.8 77 77 WNW 14 22 30.09 1019 1.75 2.816352 0.001 0.001
12:53 am 00:53 Cloudy with Light Snow 14 -10 8 -13.3 77 77 NW 10 17 30.06 1018 1.5 2.414016 0.001 0.001
1:24 am 01:24 Cloudy with Light Snow 13 -10.6 7 -13.9 77 77 W 13 20 30.09 1019 2 3.218688 0.001 0.001
1:39 am 01:39 Cloudy with Light Snow 13 -10.6 6 -14.4 74 74 W 10 17 30.09 1019 3 4.828032 0.001 0.001
1:53 am 01:53 Cloudy with Light Snow 13 -10.6 5 -15 70 70 WNW 9 15 30.06 1018 2.5 4.02336 0.001 0.001
2:07 am 02:07 Cloudy with Light Snow 13 -10.6 4 -15.6 67 67 VRB 7 11 30.09 1019 4 6.437376 0.001 0.001
2:53 am 02:53 Cloudy with Light Snow 11 -11.7 2 -16.7 67 67 W 12 19 30.09 1019 5 8.04672 0.001 0.001
3:53 am 03:53 Mostly Cloudy 8 -13.3 -4 -20 57 57 W 18 30 30.09 1019 10 16.09344 0.001 0.001
4:53 am 04:53 Clear 6 -14.4 -8 -22.2 52 52 W 13 20 30.09 1019 10 16.09344 0 0
5:53 am 05:53 Clear 5 -15 -9 -22.8 52 52 WSW 16 26 30.09 1019 10 16.09344 0 0
6:53 am 06:53 Clear 4 -15.6 -9 -22.8 54 54 WSW 22 35 30.12 1020 10 16.09344 0 0
7:53 am 07:53 Cloudy 5 -15 -8 -22.2 54 54 W 20 31 30.15 1021 10 16.09344 0 0
8:21 am 08:21 Cloudy with Light Snow 5 -15 -5 -20.6 63 63 W 18 30 30.24 1024 1.25 2.01168 0.001 0.001
8:33 am 08:33 Cloudy with Light Snow 2 -16.7 -4 -20 76 76 NW 14 22 30.27 1025 1.25 2.01168 0.001 0.001
9:53 am 09:53 Cloudy with Haze 0 -17.8 -12 -24.4 57 57 WNW 14 22 30.33 1027 6 9.656064 0.001 0.001
10:53 am 10:53 Mostly Sunny 1 -17.2 -16 -26.7 44 44 WNW 21 33 30.36 1028 10 16.09344 0 0
11:53 am 11:53 Sunny 1 -17.2 -14 -25.6 48 48 W 14 22 30.39 1029 10 16.09344 0 0
12:53 pm 12:53 Mostly Sunny 1 -17.2 -13 -25 51 51 WSW 15 24 30.39 1029 10 16.09344 0 0
1:53 pm 13:53 Sunny 3 -16.1 -14 -25.6 44 44 WSW 15 24 30.39 1029 10 16.09344 0 0
2:53 pm 14:53 Sunny 4 -15.6 -12 -24.4 47 47 WSW 10 17 30.39 1029 10 16.09344 0 0
3:53 pm 15:53 Sunny 5 -15 -13 -25 42 42 W 8 13 30.39 1029 10 16.09344 0 0
4:53 pm 16:53 Sunny 4 -15.6 -14 -25.6 42 42 SW 12 19 30.42 1030 10 16.09344 0 0
5:53 pm 17:53 Sunny 3 -16.1 -13 -25 47 47 WSW 12 19 30.42 1030 10 16.09344 0 0
6:53 pm 18:53 Clear 3 -16.1 -12 -24.4 49 49 SW 10 17 30.42 1030 10 16.09344 0 0
7:53 pm 19:53 Clear 2 -16.7 -12 -24.4 52 52 WSW 7 11 30.42 1030 10 16.09344 0 0
8:53 pm 20:53 Clear 3 -16.1 -12 -24.4 49 49 W 9 15 30.42 1030 10 16.09344 0 0
9:53 pm 21:53 Clear 2 -16.7 -11 -23.9 54 54 W 8 13 30.45 1031 10 16.09344 0 0
10:53 pm 22:53 Clear 3 -16.1 -11 -23.9 51 51 W 13 20 30.45 1031 10 16.09344 0 0
11:53 pm 23:53 Clear 2 -16.7 -12 -24.4 52 52 VRB 5 7 30.45 1031 10 16.09344 0 0

Powered by AerisWeather